Theta_e
349 348 350 349 349 348 347 346 346 347 347 346 348 348 347 348 348 349 347 346 346 348 349 347 343 342 342 340 338 340 340 338 339 339 340 340 339 340 340 339 340 342 341 339 340 341 341 341 341 341 340 339 337 336 334 334 335 335 335 335 335 334 333 333 332 332 331 332 332 333 333 333 333 333 333 333 333 333 333 332 332 330 329 330 331
350 350 350 349 349 348 347 347 348 348 347 345 348 348 348 348 349 349 347 346 348 349 347 344 342 342 341 340 339 341 340 338 337 337 338 340 340 339 338 338 339 341 341 340 339 341 341 340 340 340 340 340 339 338 336 335 334 335 336 336 336 337 336 334 333 332 332 332 332 332 332 332 332 332 333 333 333 333 333 332 332 330 327 327 328
348 349 350 350 348 347 347 348 349 348 347 346 346 347 348 348 348 348 345 344 346 348 345 342 342 341 340 340 339 340 339 337 337 337 336 338 338 338 337 337 339 340 341 341 339 340 342 341 340 340 340 340 340 340 339 337 336 336 336 337 337 338 337 337 336 335 333 332 332 332 332 333 332 332 332 332 332 332 332 332 332 330 329 327 328
343 344 347 349 347 346 348 349 347 346 347 347 345 344 345 346 348 348 346 346 347 346 343 341 343 341 339 339 338 339 338 336 338 336 336 337 337 338 339 338 337 338 339 340 340 339 340 341 341 340 340 340 340 339 338 339 339 338 338 338 338 337 337 337 338 338 336 334 333 332 331 332 332 333 332 332 332 332 332 332 332 332 331 331 331
342 343 344 346 346 345 346 347 347 346 346 346 344 343 345 347 349 349 348 348 346 345 342 341 342 340 339 338 339 338 336 338 338 337 337 336 338 339 338 338 338 337 338 339 340 340 339 340 340 341 341 340 339 339 339 339 340 339 339 338 338 338 337 337 337 338 337 336 335 333 332 331 330 331 331 332 331 331 332 332 333 333 334 334 334
342 344 345 344 343 344 345 346 347 346 346 344 342 343 345 348 348 348 349 347 345 344 343 342 341 341 339 338 339 337 335 338 336 337 339 337 338 339 338 339 339 339 339 338 338 339 339 340 340 341 341 340 339 339 339 339 339 340 340 338 337 338 338 337 337 337 337 337 337 336 335 333 331 329 329 329 329 330 330 331 332 332 332 333 333
343 345 345 344 343 343 342 344 346 347 346 344 342 343 344 346 346 347 347 345 345 343 342 342 342 343 340 337 339 337 336 337 335 339 340 337 337 338 339 339 339 340 340 338 337 337 338 339 338 339 340 339 340 340 340 340 339 339 339 339 338 337 337 337 337 338 338 338 338 337 336 335 334 332 330 328 327 328 328 328 329 329 330 330 331
345 345 344 343 343 341 341 344 346 346 346 344 342 344 345 346 346 346 346 345 343 339 340 342 340 342 340 339 340 337 337 337 335 338 338 338 338 339 339 339 339 340 338 338 337 336 338 338 337 337 339 339 339 340 340 340 340 338 338 338 339 338 337 337 337 338 339 339 338 338 337 337 336 335 334 332 330 328 328 328 328 328 328 328 329
345 345 345 344 342 341 343 344 344 345 347 345 343 346 347 347 346 345 346 346 340 333 337 340 339 341 340 339 340 337 338 338 335 337 338 339 339 339 340 339 340 341 339 339 339 339 339 339 339 338 338 339 339 340 340 340 341 339 338 338 338 338 338 337 337 338 339 340 340 339 338 338 337 336 336 336 335 333 332 330 329 329 329 329 329
347 345 344 343 342 342 342 343 344 346 347 345 345 347 347 346 346 345 346 340 332 327 332 337 337 338 336 336 340 338 338 338 337 337 337 338 336 336 340 339 339 340 341 341 341 341 340 339 341 339 338 338 339 340 340 341 342 341 340 340 339 338 337 336 336 336 338 339 339 339 338 338 338 338 338 338 338 337 336 334 333 333 332 332 331
349 346 343 344 343 343 341 342 343 344 346 346 347 347 346 347 346 343 337 330 329 332 335 336 336 337 336 338 340 338 335 334 335 337 336 336 334 334 338 338 338 338 339 340 340 341 341 340 341 340 339 338 338 339 340 341 342 342 341 341 341 340 339 337 336 336 336 336 336 336 337 338 338 338 338 339 339 339 338 337 336 336 335 334 334
350 347 343 343 342 342 342 342 342 343 346 347 346 347 346 343 337 331 328 330 335 337 338 337 337 337 338 339 340 337 334 332 334 336 335 335 333 332 335 335 336 338 338 338 338 339 340 340 340 340 339 339 339 340 340 340 340 340 340 340 340 339 338 337 336 336 337 337 336 336 337 338 338 338 338 338 339 339 339 338 338 338 337 336 335
348 347 345 344 343 343 344 346 345 346 347 347 346 345 340 331 326 328 332 337 338 338 339 336 335 338 339 340 340 337 335 334 335 337 334 334 333 332 333 332 334 335 337 338 338 338 338 337 338 338 337 338 339 340 339 339 338 338 337 337 336 335 335 335 335 335 336 336 337 338 338 338 338 338 338 337 338 338 338 339 339 338 338 337 336
346 346 346 345 345 345 346 348 348 348 348 346 343 338 330 323 326 335 339 339 337 338 338 334 336 341 340 340 339 336 337 336 337 336 333 332 332 331 331 332 332 332 335 337 336 337 337 333 331 332 333 333 335 337 337 336 337 337 335 333 332 330 330 330 332 333 335 336 336 338 338 339 339 339 339 338 338 338 338 338 338 338 338 338 338
347 347 347 346 346 347 349 348 347 348 347 342 337 333 328 326 332 339 340 341 340 339 338 335 338 340 338 338 336 336 338 336 335 334 332 332 332 331 331 331 331 330 332 334 335 336 335 330 326 326 330 334 334 334 332 331 334 334 330 329 329 329 328 328 328 329 331 334 336 337 338 338 339 339 340 340 339 339 338 338 339 339 339 339 338
348 347 348 348 347 349 349 348 347 347 343 338 333 332 333 334 338 341 340 341 341 341 340 337 337 337 338 340 337 336 339 337 336 335 333 334 332 332 331 330 330 328 329 330 331 333 334 331 326 323 326 332 336 336 332 329 329 328 326 326 327 327 327 327 327 327 327 329 331 334 337 339 339 339 339 340 340 340 339 339 339 340 339 339 338
350 348 350 350 347 348 348 346 346 343 339 335 330 331 337 340 342 341 339 340 341 341 341 338 336 333 334 338 338 338 340 339 338 336 335 335 333 331 331 331 330 329 328 328 327 329 331 331 330 329 327 328 333 335 332 327 324 323 322 322 322 322 322 323 323 324 325 325 326 328 331 335 338 340 340 340 340 339 339 339 340 340 339 339 339
352 350 351 351 348 348 345 342 342 339 336 333 327 330 338 341 342 341 340 341 339 337 338 337 335 332 329 333 337 339 339 339 338 336 335 335 334 332 331 331 330 330 330 329 329 329 329 329 329 331 331 329 329 330 329 327 324 322 320 318 319 319 319 319 319 320 321 322 323 324 326 329 332 336 338 340 340 340 340 340 340 340 341 340 340
353 350 348 348 346 345 341 341 342 341 338 330 325 335 341 341 341 341 340 340 336 334 335 336 336 336 335 335 337 339 337 338 339 337 336 336 333 331 331 331 330 331 331 330 332 331 330 329 328 328 330 330 329 327 329 330 327 323 320 318 318 318 318 318 318 318 318 318 319 320 322 323 326 328 330 334 337 339 340 341 341 341 341 341 341
350 345 343 344 344 343 340 340 341 342 340 331 327 338 342 339 341 340 338 337 335 334 336 337 337 339 339 338 337 337 336 337 337 335 336 335 332 331 332 331 330 331 330 330 331 331 330 330 330 329 328 330 329 327 329 330 328 323 320 318 316 316 317 317 317 318 317 317 317 317 318 319 320 322 324 326 329 333 336 338 340 341 341 342 342
346 342 343 344 344 343 341 340 341 341 338 332 333 339 340 339 340 338 335 335 333 332 333 334 334 338 340 338 337 336 336 337 335 334 334 334 333 332 333 332 331 332 331 331 331 331 331 330 331 329 327 328 329 328 329 330 329 326 321 318 316 315 316 316 317 317 318 318 317 317 316 316 317 317 318 320 322 324 326 329 333 335 337 339 340
342 342 342 342 342 342 340 340 342 341 337 336 339 340 340 339 337 335 337 338 333 327 328 329 330 337 338 337 336 335 335 336 335 335 335 334 333 332 332 332 332 332 332 332 332 331 331 331 331 330 329 328 328 328 329 329 330 329 325 321 318 316 316 316 316 317 317 318 318 318 318 317 316 316 316 316 317 318 319 320 322 324 327 330 332
341 341 340 339 339 339 340 342 343 340 335 335 340 340 339 337 334 334 337 337 332 328 331 331 329 331 332 332 334 333 335 335 333 335 335 334 333 332 333 332 331 332 332 332 332 332 332 332 331 331 331 330 329 328 328 328 330 329 326 326 325 322 318 317 317 317 318 318 319 319 319 318 318 317 317 317 317 317 317 317 317 318 319 320 321
343 343 340 339 339 338 343 345 343 340 332 329 337 339 337 338 337 334 333 331 327 326 331 335 333 329 331 334 334 333 335 334 332 333 333 333 332 331 331 331 332 333 333 333 333 333 333 332 332 331 331 331 330 329 328 328 327 325 325 328 329 326 322 319 319 319 319 319 319 320 320 319 319 318 318 318 318 318 318 317 317 317 317 317 318
346 346 343 343 342 341 344 344 342 340 330 326 335 336 334 339 339 334 332 330 327 325 328 335 336 332 334 336 335 334 333 332 331 332 333 332 332 332 332 333 334 334 333 333 333 333 332 332 332 331 331 331 330 330 329 328 327 325 326 328 328 327 324 321 320 321 321 320 320 321 321 320 319 318 317 317 317 317 318 318 318 318 318 318 318
344 346 345 343 342 341 343 343 340 333 323 322 330 330 328 336 337 334 335 334 332 331 329 333 337 334 334 335 334 334 334 333 332 332 333 332 332 333 334 333 333 333 333 333 333 332 332 331 331 331 331 331 330 330 330 330 330 329 328 328 328 328 326 324 324 324 323 322 320 320 321 321 320 318 316 316 315 316 317 317 317 318 318 318 318
342 344 344 343 343 342 340 339 333 324 317 318 322 322 322 327 329 330 334 336 334 334 332 333 336 336 336 335 332 333 334 333 331 331 333 332 332 333 333 333 333 333 333 332 332 333 332 331 330 330 330 330 329 329 330 330 331 330 330 330 330 330 329 327 326 326 325 323 321 320 320 320 319 317 316 315 315 316 317 317 318 318 318 318 318
343 342 342 343 343 343 339 335 328 319 317 316 318 320 319 320 322 322 326 333 335 334 335 336 336 335 336 335 333 331 332 332 332 333 334 334 334 333 332 332 333 333 334 333 332 333 332 331 330 330 330 329 329 329 329 330 330 329 329 330 330 330 329 328 327 326 325 324 322 321 321 320 319 318 317 316 315 316 316 317 318 318 318 318 318
344 342 343 344 343 341 338 335 329 320 318 317 316 319 319 319 320 318 320 328 333 331 330 332 333 335 337 337 336 334 332 332 332 333 333 333 333 333 332 334 334 334 334 334 333 333 331 330 330 331 331 330 330 330 329 329 328 327 328 330 330 329 327 326 325 325 324 324 323 323 322 321 320 319 318 317 316 316 316 317 318 318 318 318 318
344 341 342 343 341 339 337 334 329 322 318 318 316 317 320 320 320 320 320 328 334 331 326 327 330 332 335 336 336 336 335 334 333 332 333 333 334 334 335 336 336 335 334 334 333 332 330 329 329 330 330 330 331 330 330 329 328 327 327 327 327 326 324 323 324 325 325 324 324 323 323 322 321 320 319 318 318 317 317 317 317 317 318 318 318
344 340 341 342 339 337 337 335 330 324 319 319 317 317 319 320 321 322 322 327 334 334 330 328 327 327 328 329 330 332 334 333 333 334 335 334 335 335 335 336 336 335 334 334 333 331 331 330 329 329 329 329 330 330 330 330 329 329 329 327 326 325 325 323 323 324 324 324 324 324 324 323 322 320 319 319 318 318 318 318 318 318 318 318 318
343 341 340 341 338 336 336 336 332 325 321 320 318 317 319 319 321 323 324 327 330 331 330 328 328 329 330 329 330 332 333 332 333 334 335 334 333 333 334 334 334 333 333 334 333 331 330 330 329 329 329 329 329 329 330 330 330 330 330 330 330 329 328 326 324 323 323 324 325 325 325 324 323 321 320 319 319 319 319 320 320 319 319 319 318
343 342 341 341 339 336 336 338 335 327 323 321 319 318 319 320 321 323 325 329 330 330 329 328 328 330 332 333 334 334 334 333 333 334 335 335 333 332 332 332 332 332 332 333 333 332 329 328 328 329 329 329 330 329 329 330 330 330 330 330 330 330 330 329 327 325 324 323 323 323 324 324 323 323 321 321 321 321 321 321 321 321 321 321 319
342 342 342 341 339 337 337 338 336 330 325 322 320 319 320 322 324 323 324 329 334 334 333 331 328 326 327 327 327 330 333 333 334 334 335 336 334 333 333 332 332 332 332 333 333 333 330 328 328 329 328 329 330 330 329 328 328 329 330 330 330 330 331 331 330 328 326 326 326 326 326 325 324 324 323 323 322 322 322 322 322 321 322 322 320
342 341 341 341 339 338 336 336 336 332 327 324 322 320 321 324 325 324 323 326 331 332 332 330 327 324 322 321 323 329 333 334 334 335 335 335 334 333 332 332 333 333 334 333 333 332 331 329 329 330 327 324 325 327 327 327 327 327 329 330 329 329 329 329 329 329 328 329 330 330 329 327 326 325 325 324 324 324 323 322 322 321 321 321 320
341 340 339 340 339 337 335 335 337 335 330 326 322 320 322 325 326 325 323 323 325 328 328 327 324 321 320 321 326 332 334 334 334 335 334 334 334 333 332 333 333 334 334 333 332 332 331 330 329 329 327 324 322 322 324 325 327 326 327 328 327 327 327 328 328 329 329 330 330 330 329 329 328 326 325 324 324 324 323 322 322 322 321 320 321
339 339 338 338 337 336 334 335 336 335 332 327 322 319 322 325 326 325 324 324 326 330 331 329 324 320 318 321 328 334 334 334 333 334 334 334 333 332 332 332 333 333 332 332 331 331 331 330 329 329 328 326 324 323 322 325 327 327 326 326 325 325 326 327 327 327 328 328 327 327 327 328 327 326 325 324 323 323 322 321 321 322 321 321 323
337 339 339 338 337 335 333 334 335 335 334 329 322 319 321 324 326 325 324 324 326 330 332 330 325 320 318 321 329 334 333 333 334 334 333 332 332 332 332 332 333 333 332 330 330 330 331 330 330 329 328 327 326 325 324 326 328 328 328 327 325 325 327 328 327 327 326 325 325 325 326 326 326 325 325 323 322 322 323 323 324 324 323 323 324
338 339 340 339 339 338 335 334 334 335 335 330 324 320 320 323 326 326 325 325 325 326 328 326 324 322 320 321 325 329 329 331 333 332 330 329 330 331 331 331 331 331 330 329 330 329 330 330 329 328 329 328 327 326 325 326 327 328 330 329 326 325 326 327 328 328 327 325 324 324 324 324 324 324 323 323 322 323 324 325 326 326 325 324 324
335 338 340 340 340 340 337 334 334 336 335 331 326 322 320 323 326 327 326 326 326 326 328 327 325 325 324 321 322 324 326 328 330 330 329 327 328 329 329 329 328 328 327 328 328 327 327 328 328 328 329 328 326 326 326 326 327 328 329 329 327 326 325 326 327 327 327 324 322 323 323 324 323 322 322 323 321 320 321 323 325 325 325 326 326
334 338 339 339 340 341 338 335 335 337 336 333 329 326 322 322 325 327 326 326 327 328 331 330 327 325 324 322 322 323 324 327 330 330 329 328 328 328 327 327 327 326 326 325 325 324 324 325 326 327 328 327 326 326 327 327 328 328 328 328 328 327 327 327 327 326 325 322 322 323 323 322 320 320 321 321 318 317 319 321 323 323 324 325 326
338 340 341 340 340 340 338 336 337 338 338 335 332 329 325 322 324 327 326 326 327 329 332 332 327 322 322 323 323 324 325 329 331 329 328 329 329 327 325 325 325 325 325 324 325 326 326 326 327 327 327 327 326 327 327 327 328 329 329 328 328 327 327 327 326 324 323 322 322 322 320 318 317 319 320 319 316 316 317 318 320 322 323 324 325
342 344 344 342 342 342 341 338 337 338 338 337 334 331 327 323 323 326 326 326 326 328 332 333 328 322 321 323 324 324 324 328 330 328 328 329 327 325 324 324 325 326 327 328 328 328 327 327 327 327 327 326 326 326 327 327 328 328 328 328 327 327 326 326 325 324 322 321 321 321 318 315 315 317 318 316 315 315 316 318 320 322 323 323 323
345 345 345 344 344 345 343 339 338 339 340 338 335 332 329 325 324 326 326 326 327 328 330 331 329 324 322 323 324 323 323 325 326 326 327 327 325 324 325 326 327 329 330 330 329 328 327 327 327 327 326 326 327 327 327 328 328 328 328 327 326 325 325 325 325 323 320 318 318 317 315 314 314 316 317 318 318 318 319 320 322 322 323 322 322
346 346 346 346 346 345 343 340 340 341 342 340 337 333 330 326 325 326 326 325 328 330 331 331 329 325 324 325 325 324 324 325 327 327 327 326 326 328 329 329 330 330 330 329 328 327 327 327 327 326 326 327 328 328 328 329 328 327 327 326 325 325 324 322 320 317 316 315 315 317 317 317 317 319 321 321 320 320 321 322 322 322 322 322 323
347 348 348 347 345 344 342 340 341 341 341 340 338 335 332 328 326 326 325 324 326 330 332 333 331 328 326 326 327 328 329 329 329 328 328 329 330 331 330 330 330 329 328 327 326 326 327 326 326 326 326 327 328 328 328 328 328 327 327 326 325 322 320 318 317 316 316 317 319 321 322 322 322 323 324 322 320 320 321 321 321 321 322 322 322
347 348 347 346 345 343 342 341 340 340 340 339 338 336 334 332 330 327 326 325 325 327 329 333 333 330 327 328 330 331 332 331 329 327 329 332 333 331 329 328 328 327 326 326 326 326 326 326 327 327 327 327 327 327 327 327 327 327 326 323 321 318 317 318 318 318 319 319 321 323 324 323 324 324 323 322 321 320 320 320 321 321 320 318 316
350 349 348 346 345 343 342 341 340 340 340 339 338 337 336 336 334 333 330 327 325 325 326 329 330 329 328 331 332 332 333 333 332 330 331 333 332 329 326 326 326 326 326 325 325 325 325 325 326 327 326 326 326 326 326 326 326 324 322 319 318 318 318 319 319 320 321 320 321 322 323 323 322 322 321 320 319 319 320 319 318 316 314 314 315
352 350 349 348 347 345 344 343 342 341 340 339 339 338 338 337 336 336 334 330 327 326 327 328 329 329 330 331 332 332 334 333 332 331 332 331 328 324 323 325 325 326 325 325 326 326 325 326 327 326 326 326 326 326 325 324 322 320 319 319 319 320 320 320 319 320 320 319 320 321 321 321 320 319 319 318 318 318 317 314 311 312 314 317 319
353 351 350 350 349 349 347 345 343 342 341 340 340 338 338 337 336 336 335 332 329 327 329 331 331 330 330 330 329 330 331 329 328 330 329 326 324 323 324 325 325 325 325 325 325 326 326 326 326 324 325 325 324 323 321 320 319 319 320 321 320 320 320 320 320 320 320 320 319 319 319 319 318 317 317 316 315 313 310 310 312 316 319 320 321
354 353 352 351 349 348 346 345 344 343 342 341 340 339 339 338 338 337 336 333 330 329 331 331 329 329 330 330 328 327 327 327 328 328 326 324 323 324 324 324 323 323 323 323 323 323 323 323 322 322 322 321 319 318 318 320 321 321 321 320 320 320 322 322 322 322 321 320 318 318 317 316 315 315 314 314 314 311 310 313 318 320 321 321 321
Wind_Speed
6 6 4 6 7 9 8 7 7 5 4 3 5 5 3 6 7 5 6 6 7 7 7 7 8 8 7 7 7 7 7 6 5 6 4 6 7 6 7 6 3 3 4 4 4 4 4 6 7 8 8 8 7 6 6 6 7 7 7 7 7 6 6 7 7 8 9 9 9 9 8 8 8 7 7 7 7 7 7 6 6 6 5 5 6
8 6 8 10 9 10 8 7 7 7 7 4 3 5 5 6 6 6 7 7 6 6 7 7 8 7 6 8 9 7 8 7 6 7 6 4 4 7 8 6 4 2 3 4 4 4 4 5 6 8 9 9 8 8 7 7 8 8 7 7 7 7 7 7 7 7 8 8 9 9 9 9 8 8 8 8 8 8 8 7 7 7 6 6 6
11 10 10 11 11 9 6 7 8 7 8 7 6 7 7 7 7 7 8 7 5 5 6 7 7 6 4 6 8 6 7 7 8 8 5 2 6 10 8 6 6 5 3 4 5 4 4 5 4 5 7 9 10 10 9 9 9 9 8 8 8 7 7 8 8 8 8 8 9 9 10 10 9 9 9 9 8 8 8 8 8 8 8 7 7
12 12 11 11 11 9 7 7 8 8 8 8 8 8 8 8 7 6 6 7 5 6 6 6 5 5 4 5 7 5 6 8 8 5 2 2 7 8 7 8 9 8 5 3 5 5 4 4 4 3 4 8 10 11 11 10 10 10 9 9 9 9 9 9 9 9 9 9 9 9 9 10 10 10 10 10 9 9 9 9 9 9 9 8 7
11 11 11 12 11 10 9 8 9 9 8 7 8 7 7 6 6 6 5 5 5 7 8 5 3 3 2 4 5 5 6 7 6 6 1 1 3 4 7 9 8 9 8 5 4 5 5 4 4 3 4 6 8 9 12 12 12 12 11 11 11 11 11 11 11 10 10 10 10 10 9 10 10 11 11 11 11 11 10 10 10 10 10 9 9
11 10 10 11 11 10 9 9 10 9 7 7 7 7 7 6 7 7 5 4 4 6 8 8 6 4 2 2 3 6 7 5 7 9 3 3 3 1 2 6 7 8 7 5 3 3 4 5 4 4 5 7 7 8 11 12 12 12 12 12 12 12 12 12 12 11 11 11 11 11 10 10 10 10 11 11 11 11 11 11 11 10 10 10 10
11 10 9 10 10 10 9 9 9 9 8 7 7 8 9 9 9 7 5 4 3 5 7 7 7 5 5 5 4 4 6 4 6 7 2 5 5 1 2 2 2 5 6 4 3 2 3 3 4 4 7 9 8 8 9 10 10 11 12 13 13 12 12 12 12 12 12 13 12 12 11 11 11 11 11 11 11 11 11 11 11 11 11 10 10
10 10 9 9 10 10 10 9 9 9 8 8 7 9 9 9 8 6 5 4 3 7 6 5 6 5 5 6 2 3 5 5 4 4 5 6 6 3 5 3 1 4 5 5 4 4 3 2 2 4 8 9 9 8 8 9 9 9 11 12 13 13 12 12 12 13 13 14 14 14 14 13 12 12 11 12 12 12 12 12 12 12 11 11 11
9 10 9 9 9 9 9 10 10 10 9 8 7 9 9 7 7 5 5 5 8 10 5 4 5 5 4 4 4 2 3 4 4 2 5 7 6 4 5 8 6 2 1 3 5 4 4 3 3 4 7 7 7 8 8 8 8 8 9 10 11 12 12 12 12 13 14 14 15 15 15 15 14 14 14 13 13 13 13 13 13 13 13 13 13
9 9 9 8 9 9 10 10 11 10 11 10 7 8 8 6 6 5 6 10 13 11 6 6 6 5 4 2 5 4 2 2 3 2 2 3 6 5 2 7 10 8 3 0 2 1 4 4 4 5 6 6 6 7 8 8 8 8 9 10 10 11 11 12 13 13 14 15 15 15 15 16 16 16 17 16 16 16 16 15 14 14 14 14 14
9 9 9 9 9 9 11 11 13 14 13 11 7 5 5 3 5 9 12 13 9 6 4 4 3 3 3 2 4 6 3 2 1 3 3 2 3 5 3 6 7 8 8 5 5 5 3 2 2 3 3 5 5 6 7 7 9 9 9 10 10 11 12 12 13 13 14 15 16 16 16 16 17 17 17 17 17 18 18 18 18 17 16 16 15
11 10 9 10 9 9 10 12 15 16 15 12 6 3 3 4 8 10 9 6 4 4 4 4 1 3 3 2 4 5 4 3 5 5 2 1 1 2 4 7 7 4 9 9 6 6 4 2 2 2 1 2 3 4 5 5 7 9 8 9 10 11 12 13 14 15 15 15 16 16 17 17 18 18 18 18 17 18 19 20 20 20 20 19 17
13 11 10 11 9 9 10 12 14 15 12 9 4 3 5 8 8 5 5 5 3 3 3 2 0 1 0 1 4 4 3 4 5 5 2 1 0 1 2 3 6 5 7 10 6 4 4 3 3 2 2 1 1 2 3 2 4 6 6 6 7 8 10 11 13 14 15 16 16 17 17 18 18 19 19 20 20 19 19 19 20 21 21 21 20
12 12 11 9 8 9 10 10 10 9 7 5 3 4 7 8 4 2 3 2 2 2 2 3 0 3 2 1 3 3 2 0 1 2 2 2 2 4 2 3 3 4 5 8 7 4 4 5 3 2 3 2 2 3 3 2 1 3 3 4 6 7 8 9 10 11 13 14 16 17 18 18 18 19 20 20 21 21 21 21 21 21 21 21 22
13 12 10 8 8 10 8 7 5 5 5 3 2 5 6 4 1 2 2 3 1 1 1 2 1 2 2 1 2 4 6 4 1 3 4 2 2 0 2 4 6 1 4 5 5 6 7 6 5 3 2 2 3 4 5 4 3 5 5 6 7 8 9 9 10 10 11 12 13 15 16 17 19 19 20 20 20 21 22 23 23 22 21 21 22
11 11 10 8 9 9 6 4 5 5 4 1 2 3 3 2 1 1 3 5 2 1 1 3 1 0 2 2 2 3 3 5 3 4 3 1 3 1 3 3 5 6 3 1 2 4 9 10 9 6 3 1 2 5 6 5 5 6 6 7 8 8 9 9 10 11 11 12 12 13 14 15 17 18 19 19 20 21 22 23 23 23 22 22 22
9 10 10 8 6 6 6 6 6 3 2 1 4 1 1 1 3 4 2 2 3 4 2 2 2 2 2 2 2 3 2 2 2 4 4 2 3 1 3 1 4 7 7 6 3 2 5 9 11 10 6 2 1 4 7 8 8 6 4 6 7 8 9 9 10 10 11 12 12 13 13 14 15 16 17 18 19 20 21 22 22 22 22 23 23
9 9 8 7 5 6 6 5 4 3 1 2 3 2 4 4 5 3 1 1 3 6 2 1 3 4 2 1 3 4 2 2 2 3 4 3 4 1 1 3 4 5 8 9 4 1 3 7 8 7 8 6 2 4 8 9 11 10 8 7 7 8 8 9 9 9 10 10 11 12 13 14 15 15 16 16 17 18 18 20 21 21 22 22 23
8 8 8 7 6 6 6 4 3 3 4 3 2 4 5 8 5 3 4 3 3 5 4 1 2 3 2 2 2 1 2 0 2 1 1 3 3 2 4 3 2 2 5 6 3 4 8 10 8 4 6 8 6 5 7 11 13 12 11 8 8 8 9 9 10 10 10 9 10 11 12 13 14 15 16 16 17 17 17 18 19 20 21 22 22
9 9 9 8 8 7 6 6 5 5 5 5 3 6 7 8 5 5 6 3 4 6 5 5 2 2 3 4 4 3 1 2 2 1 1 4 4 3 4 4 1 2 1 1 3 7 9 10 11 10 8 8 10 7 4 11 15 14 12 10 9 9 9 10 10 11 11 11 11 10 11 11 12 13 14 15 16 17 18 19 20 20 21 21 21
10 9 10 9 9 8 7 6 6 6 4 1 3 6 5 4 5 4 3 2 4 6 7 8 4 1 2 4 4 3 3 2 2 2 1 4 5 3 4 5 2 2 2 4 4 6 8 10 13 17 11 5 8 9 4 8 14 15 14 14 14 13 11 11 11 11 12 12 12 12 12 12 12 12 12 13 14 15 16 18 20 21 22 22 22
11 9 9 10 10 9 7 6 6 6 4 4 6 6 6 6 6 4 4 3 5 4 6 9 9 4 1 2 4 4 4 2 1 1 1 2 4 4 4 4 3 2 1 3 6 7 8 10 13 13 9 5 6 8 6 8 12 16 16 15 14 13 12 13 12 12 12 12 13 13 14 14 14 14 14 14 14 14 15 16 17 19 20 22 23
10 11 10 11 11 9 5 4 6 7 6 8 10 7 6 6 6 6 8 9 7 3 5 6 9 7 2 4 4 3 3 2 2 1 2 2 3 6 7 7 5 4 4 4 6 8 8 10 10 8 6 7 9 9 9 11 13 17 18 15 14 13 13 13 13 13 13 13 14 14 15 15 15 15 15 15 15 15 15 16 16 17 18 19 20
10 12 10 11 12 8 7 7 11 10 8 8 11 9 6 4 7 8 9 10 7 6 7 5 4 4 4 2 1 1 2 3 3 2 2 3 5 7 8 7 7 7 7 7 7 8 9 8 8 7 7 10 13 13 14 15 15 17 17 16 17 18 15 13 13 14 13 14 14 15 15 16 16 17 17 16 16 16 16 16 17 17 18 18 19
13 13 11 11 11 9 11 14 16 13 10 8 10 12 12 9 9 8 6 6 5 5 8 6 4 5 6 5 2 2 3 4 4 4 4 6 7 8 8 7 8 8 8 9 9 9 9 7 8 10 9 11 13 13 15 17 16 15 15 16 19 20 19 16 15 15 15 15 15 15 15 16 16 17 18 18 18 18 17 17 17 18 18 19 19
14 14 14 13 13 11 12 16 16 13 11 9 11 13 14 14 12 9 8 7 5 6 8 8 7 6 5 7 7 7 6 4 4 5 5 6 6 7 8 9 11 10 9 9 10 10 9 7 9 12 12 12 11 11 15 17 15 13 13 16 18 19 20 19 18 18 17 16 16 16 16 16 16 17 18 19 19 19 19 19 19 19 19 19 19
15 16 16 14 13 14 14 15 13 10 9 9 11 12 12 16 15 11 11 9 6 7 8 8 9 8 7 9 12 11 9 9 8 7 7 7 7 9 11 12 12 11 11 9 8 9 9 9 10 11 13 14 13 13 15 15 14 15 17 19 21 20 19 19 20 20 19 18 17 17 17 16 16 16 17 18 19 20 20 20 20 20 20 20 20
17 18 17 16 16 17 18 15 12 9 8 9 11 11 11 14 15 13 13 12 10 10 10 10 11 10 7 7 9 9 9 12 12 10 10 9 11 13 13 12 11 10 10 9 8 8 8 8 9 10 11 13 14 16 17 17 18 19 20 21 22 21 20 20 22 22 21 20 18 17 18 18 17 17 18 19 19 20 21 21 21 21 21 22 22
19 18 18 18 19 20 20 18 15 11 10 10 11 12 11 12 13 13 13 14 13 13 12 12 12 10 8 8 7 7 7 10 12 12 11 11 11 12 11 9 9 9 9 10 10 10 9 8 8 10 12 13 15 19 20 21 20 19 19 19 19 21 21 22 24 24 24 22 20 19 19 19 19 20 20 20 20 21 21 22 22 23 23 23 23
21 20 20 21 21 21 20 19 17 14 13 12 11 13 12 12 12 12 12 14 14 13 11 11 12 12 12 13 12 9 9 10 10 9 8 8 9 10 9 8 8 9 9 10 12 11 10 9 8 9 13 14 15 19 21 22 21 20 19 19 20 21 21 21 22 23 24 24 24 23 21 21 21 21 22 22 22 22 22 23 24 25 25 25 25
25 24 24 24 24 23 21 20 18 17 16 14 12 14 14 13 13 12 11 13 15 14 13 11 11 11 10 11 11 12 12 12 11 9 8 8 10 10 9 8 8 8 8 10 13 12 10 11 11 11 12 13 14 17 20 21 20 20 21 21 20 20 20 21 21 22 23 24 24 25 24 23 22 23 23 23 24 23 23 24 24 25 26 26 26
27 27 26 26 26 25 23 22 21 19 18 16 14 14 15 15 14 13 11 12 14 14 14 12 10 9 8 7 8 9 11 11 10 10 10 10 11 11 9 8 8 9 9 10 13 14 12 12 14 14 13 14 15 16 17 19 19 19 20 21 21 21 21 21 21 21 22 22 23 23 23 23 24 24 23 23 23 23 23 24 25 26 26 26 26
30 29 28 28 28 26 24 23 23 22 20 18 16 15 15 16 15 14 12 13 13 12 12 12 10 9 10 10 11 11 12 11 10 10 10 11 11 10 7 7 8 8 9 10 13 16 15 14 15 17 17 18 18 16 15 17 18 18 19 20 22 23 22 22 22 21 20 21 22 23 23 24 24 24 24 23 22 22 23 24 26 26 25 25 25
32 31 30 29 29 28 26 25 25 24 22 20 19 17 16 16 15 14 14 15 15 15 14 13 11 10 11 13 13 13 13 12 11 10 10 11 11 8 5 7 9 10 10 11 12 15 18 18 18 18 19 19 19 19 17 17 18 19 21 22 22 23 22 22 23 22 21 22 22 24 25 26 26 25 25 24 24 24 24 24 24 25 24 24 24
34 33 31 30 30 30 29 28 27 26 24 22 21 20 18 16 14 13 13 16 18 18 18 16 13 11 11 11 12 12 13 12 10 10 10 10 10 9 8 10 12 12 12 12 13 15 19 20 20 21 20 19 19 20 21 21 20 20 21 22 23 23 23 23 22 22 22 22 23 25 26 26 26 26 24 24 25 25 24 24 25 25 26 26 27
34 35 33 32 32 32 31 31 30 29 27 25 23 22 20 17 15 14 14 15 16 17 16 15 13 11 11 12 12 12 12 11 10 10 11 11 10 10 10 11 12 13 13 14 15 16 18 21 23 23 22 21 21 21 21 22 22 21 22 22 23 23 23 22 22 22 22 22 23 24 24 24 24 24 25 26 27 27 27 28 29 30 30 30 29
37 37 36 35 35 35 34 33 32 31 29 27 24 24 22 19 17 15 15 16 15 15 15 15 13 12 12 13 12 11 11 11 10 10 10 10 10 11 11 12 14 16 15 15 16 16 18 21 24 25 24 23 24 24 23 21 22 23 24 24 24 24 23 22 21 22 22 23 25 25 24 24 25 27 29 29 30 30 31 32 33 33 31 30 29
40 39 38 38 38 37 36 35 34 34 31 28 26 25 23 21 19 17 17 17 16 17 18 17 16 14 13 14 14 14 14 12 10 10 10 10 11 12 12 13 16 18 18 18 18 18 20 23 26 28 27 26 26 27 25 23 23 26 26 25 25 25 23 22 22 23 24 25 26 26 25 26 28 30 31 30 31 31 32 33 33 33 32 31 30
41 40 39 39 39 40 38 36 35 35 33 30 28 27 25 23 20 19 19 17 16 18 18 18 17 15 15 15 15 16 15 13 13 13 12 11 11 12 13 15 16 17 18 20 21 23 24 25 27 28 28 27 27 28 28 26 25 26 25 25 26 25 24 24 24 25 26 27 27 26 26 27 29 30 30 30 30 30 31 32 33 34 34 34 34
43 41 40 41 42 41 39 38 37 37 34 33 31 28 26 25 22 21 19 17 16 17 17 17 17 16 16 16 15 15 14 14 15 15 13 12 12 12 13 14 16 18 20 22 25 27 28 28 29 28 28 28 28 29 29 27 25 26 26 26 27 27 26 26 27 27 29 30 30 29 28 27 28 30 30 30 31 32 33 33 34 35 35 35 35
44 42 40 42 44 42 40 39 39 38 37 36 34 30 28 27 25 22 19 17 17 18 19 19 18 18 18 17 16 15 15 15 15 15 15 15 14 14 15 16 19 21 24 26 27 28 31 32 32 30 29 29 29 29 28 27 26 26 26 25 26 26 26 27 29 30 31 32 31 30 28 29 31 32 32 33 34 34 34 34 34 35 35 34 34
43 41 41 43 45 43 41 41 40 40 39 37 35 32 29 27 26 23 20 18 17 19 21 21 20 20 19 18 17 16 16 17 17 17 17 17 16 17 19 20 21 23 25 27 27 28 31 33 32 29 29 29 29 29 28 27 26 25 25 25 26 27 27 30 33 33 31 30 29 30 31 32 35 36 35 36 37 38 37 37 36 35 35 34 33
42 40 41 43 44 43 42 41 41 42 41 39 37 34 31 28 26 23 20 18 18 19 22 23 22 21 19 18 18 17 17 19 20 19 19 19 18 19 20 21 22 24 25 26 26 27 29 30 29 27 27 29 30 30 30 29 28 27 27 28 28 29 30 31 33 32 29 28 29 32 34 35 36 38 38 38 39 38 36 35 33 32 32 30 29
42 42 42 43 42 40 39 41 42 42 41 40 38 36 33 29 26 24 21 19 20 21 23 24 23 22 20 19 19 18 19 21 21 21 20 19 18 18 19 21 23 24 24 24 25 27 27 27 26 25 27 30 31 31 30 30 29 28 28 28 28 29 30 30 32 32 32 32 33 36 38 37 36 37 36 33 31 30 29 29 28 28 29 29 29
43 43 42 42 41 38 37 38 39 40 40 40 38 37 34 29 26 24 21 20 22 23 23 23 23 22 21 20 20 20 19 19 19 19 19 18 17 17 19 22 23 23 24 25 26 28 27 25 25 26 27 28 29 29 29 28 27 26 26 27 29 31 33 33 34 35 34 32 31 34 36 33 30 30 30 27 25 25 26 27 27 27 28 30 30
43 43 42 42 41 39 38 37 37 36 37 38 37 36 33 28 26 25 22 21 22 23 22 23 23 22 21 20 20 20 18 17 16 16 18 19 19 19 20 22 22 22 23 25 26 26 24 24 25 26 26 26 28 29 27 26 24 24 26 30 33 36 36 34 32 31 29 25 22 26 31 30 26 28 30 28 27 28 29 29 29 29 30 32 35
41 42 41 41 41 39 37 37 36 35 34 34 34 33 30 26 24 24 24 22 23 24 24 24 23 22 21 21 20 18 17 18 17 17 19 21 20 20 21 21 22 22 23 24 24 23 23 23 24 26 26 26 27 28 27 26 26 27 30 33 34 33 30 28 27 25 23 20 18 22 30 30 27 29 31 29 30 32 31 31 32 33 35 38 39
38 39 39 38 38 37 35 34 34 32 30 29 28 27 24 21 21 22 23 24 25 25 25 25 25 23 21 21 19 17 17 19 20 20 22 21 19 19 19 20 22 23 23 23 22 21 22 22 22 23 23 23 25 26 27 28 29 31 32 30 26 24 23 25 26 24 23 22 19 21 28 31 28 29 30 30 31 33 33 34 36 37 37 37 36
34 34 34 33 33 32 30 28 28 27 25 24 23 23 22 20 20 21 23 24 25 25 24 25 24 23 22 21 19 18 18 20 21 23 23 20 18 18 20 20 22 23 22 21 19 19 19 19 20 20 21 22 24 26 27 28 29 27 25 22 20 20 23 26 27 26 25 23 20 21 26 29 28 28 30 31 33 35 37 38 38 35 34 34 34
31 30 27 25 24 23 20 18 17 19 20 21 22 22 22 21 21 21 22 22 23 23 23 23 23 22 21 20 19 19 19 19 20 22 20 17 17 18 19 20 21 21 20 19 18 17 18 20 22 23 23 24 26 27 27 24 21 19 20 21 23 25 28 29 28 29 28 24 20 20 24 27 27 29 31 34 37 38 37 36 34 33 33 35 37
28 26 22 19 18 17 15 14 14 14 15 18 20 21 21 21 22 22 21 21 22 22 22 22 21 21 21 20 19 20 20 19 19 19 17 16 16 17 18 19 20 20 20 20 20 20 21 23 24 24 25 25 25 24 21 18 17 18 20 23 24 26 30 31 31 29 27 22 19 21 25 29 31 32 33 35 37 38 35 32 32 34 37 39 40
Wind_Direction
258 268 253 256 271 275 278 286 288 297 305 332 337 324 336 306 305 317 304 322 332 326 327 334 10 17 353 349 20 27 351 346 344 349 355 305 307 320 330 339 312 251 226 228 229 225 219 218 211 207 212 215 215 210 210 214 217 217 213 214 216 217 220 220 217 213 209 209 210 213 217 222 225 228 227 226 225 226 232 237 242 249 254 258 261
240 246 248 255 262 270 283 297 296 298 300 320 323 297 294 286 290 303 308 324 323 320 328 346 26 26 345 348 16 18 340 352 16 8 351 297 291 317 328 341 340 312 241 227 224 220 220 230 223 213 210 211 219 220 216 215 218 220 220 221 223 226 231 234 235 233 229 222 218 218 219 223 227 231 233 233 235 238 240 244 249 257 264 264 269
231 234 248 257 263 276 287 289 291 292 297 296 279 280 282 281 286 294 309 316 310 318 336 9 23 20 13 338 358 11 334 4 36 15 0 289 300 323 339 351 352 348 295 242 230 220 218 229 226 219 213 209 216 221 220 221 223 224 226 229 231 231 233 237 242 243 243 241 235 230 226 227 229 232 236 238 241 245 248 252 255 261 264 266 270
240 241 249 256 264 278 279 279 288 289 290 283 280 289 289 293 295 298 319 322 331 338 347 27 4 354 37 348 353 349 326 19 33 334 332 1 329 338 350 344 346 351 337 281 243 230 222 221 220 217 208 214 222 223 222 225 231 235 236 238 241 240 237 237 239 241 243 246 247 245 241 236 234 234 236 240 244 248 252 255 258 262 263 265 268
247 249 253 258 265 279 283 284 290 292 289 281 292 305 299 291 287 305 326 323 346 345 349 18 340 334 24 0 358 326 341 29 360 328 14 80 359 7 344 336 338 340 341 328 279 248 237 226 216 193 190 223 231 226 223 224 227 234 239 242 247 248 246 244 239 237 238 241 245 249 251 249 247 243 240 240 242 245 249 252 254 258 260 263 265
249 251 252 260 268 276 283 284 288 294 289 288 310 316 303 285 284 307 311 309 345 345 352 353 340 351 341 45 30 334 18 37 346 11 56 263 290 187 327 339 345 342 336 333 322 264 251 241 233 204 204 230 230 219 222 226 228 231 236 239 243 247 250 250 246 242 241 242 244 246 249 253 256 254 251 248 245 245 245 247 250 252 256 259 260
247 252 253 260 268 273 281 284 288 297 295 299 317 313 305 298 297 310 297 287 321 343 3 340 326 336 337 51 62 333 22 13 345 21 12 303 321 237 213 259 331 326 306 319 349 328 296 254 247 222 221 235 227 216 218 226 234 237 240 240 242 246 247 247 247 250 252 250 250 248 248 251 255 257 258 256 253 250 247 247 248 250 252 254 256
245 251 256 256 262 273 283 283 283 295 299 303 315 309 305 300 299 311 295 269 304 338 356 323 310 306 327 31 24 309 14 338 332 8 339 0 19 17 358 358 216 266 286 315 322 310 302 257 249 220 221 237 233 226 224 226 232 236 242 245 248 251 248 245 246 250 253 254 254 254 254 252 252 255 257 258 258 257 254 251 250 251 252 253 255
254 251 254 256 263 269 276 278 284 296 294 291 303 300 292 287 291 298 285 283 311 320 307 278 290 281 306 357 293 282 57 336 326 11 340 359 32 44 7 8 10 350 163 295 297 278 272 269 257 227 219 231 234 230 229 231 232 230 234 239 245 250 249 249 251 252 250 251 252 252 253 251 250 252 253 256 260 263 262 259 257 255 255 256 257
261 258 253 255 265 271 276 282 291 292 281 282 292 292 286 286 292 284 281 297 307 309 288 253 240 252 291 313 282 273 154 296 315 53 29 5 32 47 355 4 10 9 47 280 323 325 290 294 261 237 226 223 223 222 223 226 229 228 227 228 234 242 248 253 254 254 251 249 250 250 251 251 251 252 253 255 258 262 263 262 262 260 259 258 259
261 261 253 250 259 271 282 287 290 288 282 287 292 282 281 284 286 287 294 305 312 325 326 297 254 248 286 264 267 279 268 283 41 69 66 89 36 40 42 31 23 3 5 12 26 29 8 346 289 238 221 221 219 220 221 225 230 230 230 230 233 235 243 251 253 253 252 250 251 253 254 253 252 251 252 253 255 258 258 258 260 261 260 259 258
263 261 257 254 253 262 278 283 286 289 290 292 289 255 264 288 291 295 310 335 6 19 2 342 307 230 254 254 263 299 340 20 88 92 59 108 221 113 89 51 56 31 359 6 14 15 25 37 41 74 130 218 219 228 231 236 243 241 239 242 247 248 247 250 253 253 252 251 252 252 254 253 252 251 250 251 253 255 255 254 256 257 258 257 256
264 263 256 253 253 260 269 273 280 289 289 285 274 251 286 310 310 323 24 36 44 29 349 320 178 186 249 193 257 294 15 40 76 102 72 57 66 93 129 39 63 81 14 3 10 18 2 352 32 50 24 357 250 247 241 248 250 240 241 249 256 262 263 261 260 259 257 256 254 253 252 252 252 253 253 253 254 253 251 252 253 255 256 255 254
266 261 253 252 258 261 262 269 277 277 265 249 251 290 320 332 332 76 69 18 74 88 294 267 301 28 345 219 225 244 202 276 5 173 175 106 89 56 49 312 355 111 84 28 10 5 348 347 10 2 346 331 289 272 272 293 273 223 235 267 276 278 277 275 272 269 267 263 259 256 254 253 252 253 254 255 254 253 251 251 252 254 255 254 253
260 253 253 257 259 256 259 273 260 230 223 228 283 320 338 351 83 134 186 223 173 115 255 272 286 28 352 288 198 208 208 206 200 166 172 175 201 148 23 315 315 287 124 70 19 346 344 355 17 30 15 326 304 291 287 287 265 263 279 284 284 282 277 275 274 272 271 269 265 262 258 256 255 255 255 256 256 255 254 254 255 255 254 253 252
256 251 247 247 251 249 247 241 215 207 215 245 354 347 354 36 106 182 205 207 189 149 79 34 342 350 31 337 252 235 209 189 180 161 159 165 208 229 354 309 322 352 351 30 54 358 350 351 0 20 43 36 326 310 301 292 271 273 284 282 279 277 273 271 269 268 268 269 269 267 265 262 260 259 258 259 260 260 260 259 259 258 257 254 252
252 249 237 231 231 228 229 224 211 215 231 314 354 10 145 94 245 241 215 199 141 133 129 23 353 321 295 269 311 347 50 130 184 187 164 124 168 74 39 229 303 357 4 5 40 62 3 354 0 8 8 23 45 287 293 298 297 297 290 282 283 282 280 276 272 270 267 267 268 267 268 267 266 266 264 263 263 263 263 263 263 262 260 258 256
233 235 223 212 207 212 229 233 230 246 264 320 351 87 150 188 230 231 162 240 153 133 126 282 321 337 293 217 34 3 349 61 61 170 180 182 191 253 351 225 292 350 29 24 25 86 5 350 354 348 335 340 330 285 300 305 302 304 307 297 292 290 288 289 286 283 278 273 272 270 270 269 269 269 269 269 269 267 267 265 265 264 262 260 259
208 212 210 212 213 220 224 214 221 254 283 317 65 121 184 212 220 191 191 223 168 141 115 136 309 5 105 151 101 316 287 37 45 89 206 247 212 235 262 248 276 337 28 23 334 337 349 340 336 325 322 321 314 318 311 303 298 303 311 307 298 294 290 291 290 289 289 285 283 282 280 277 274 273 271 271 270 270 270 268 267 265 263 261 260
199 202 207 217 219 222 215 197 197 214 262 313 102 157 213 233 237 214 210 216 173 169 164 162 129 81 177 210 201 202 189 158 209 206 198 259 279 277 244 217 197 288 285 179 284 317 329 332 330 325 321 299 305 326 293 286 296 305 317 319 314 311 302 297 295 293 293 291 290 288 288 288 286 283 280 277 275 272 270 269 268 268 267 266 264
204 205 205 217 223 223 214 201 205 214 240 327 127 175 200 207 226 215 176 191 193 179 184 191 174 118 233 229 208 185 136 163 241 317 242 242 286 303 216 217 256 298 227 199 241 279 296 314 313 315 319 279 300 331 308 285 295 301 316 323 319 317 313 310 306 303 301 298 296 293 290 289 288 289 287 285 283 280 276 272 269 269 268 269 268
205 214 214 222 229 228 224 213 207 215 221 159 156 204 213 203 217 189 135 196 230 187 174 187 188 196 239 148 160 152 137 175 249 337 266 251 308 301 254 266 306 359 314 240 256 272 287 300 297 305 312 267 284 314 297 288 286 289 304 315 314 315 316 315 310 307 305 302 301 298 295 293 289 288 286 285 285 283 282 279 276 274 271 271 270
208 221 223 222 230 228 218 225 218 219 222 186 177 208 235 241 228 188 185 209 220 183 152 169 190 197 162 112 112 118 150 210 235 206 249 275 301 279 277 304 327 337 323 274 282 296 298 304 302 303 301 281 292 303 291 281 274 283 298 308 309 309 309 308 306 305 302 301 300 299 298 296 294 292 289 287 285 284 284 282 281 280 278 277 275
209 223 229 221 228 219 178 204 227 232 244 206 182 191 203 239 239 208 204 212 209 189 162 161 194 168 140 147 70 112 191 254 241 216 293 271 256 262 273 296 308 311 304 287 293 298 296 300 292 286 279 268 278 288 287 284 283 289 301 307 306 306 305 301 297 298 297 296 296 295 296 296 296 296 294 293 291 289 288 286 285 283 283 282 280
203 215 229 221 225 214 184 209 232 239 246 215 186 194 186 192 229 223 205 202 194 187 166 162 197 171 163 193 206 206 236 275 254 238 265 261 259 273 280 284 288 293 292 290 293 292 295 290 271 281 282 264 265 269 272 282 290 291 294 300 302 304 307 304 299 296 294 293 292 290 291 291 292 293 293 294 293 292 290 289 288 286 286 285 284
207 209 220 224 229 223 209 228 245 240 234 215 202 211 199 195 215 211 197 200 184 186 178 170 194 198 190 191 185 197 214 224 234 236 246 259 268 275 276 271 269 272 275 280 287 297 309 304 293 300 298 286 277 269 272 283 290 289 285 288 294 300 305 305 302 299 297 297 294 291 290 289 289 288 287 288 289 290 290 288 287 285 285 286 286
213 211 216 222 225 229 230 242 248 230 221 219 214 222 214 208 216 208 195 197 185 188 186 179 193 201 210 214 204 202 207 213 222 225 227 242 254 253 260 268 271 274 275 272 275 291 303 303 306 303 295 297 296 288 289 290 292 295 292 289 290 293 294 294 295 296 299 301 297 293 292 291 290 287 285 284 284 285 286 286 286 285 284 284 284
216 216 218 215 214 228 238 242 244 231 220 219 215 220 217 210 218 215 199 191 187 190 190 193 202 201 212 240 233 222 221 222 226 228 226 231 241 248 258 269 275 279 283 285 279 279 282 286 301 305 295 297 298 297 297 293 293 295 291 289 290 290 290 292 294 295 296 298 296 292 291 292 292 290 288 285 283 284 284 285 284 284 284 283 283
222 221 220 216 216 229 239 241 247 246 231 220 213 217 216 207 213 218 206 197 195 195 195 198 200 198 212 240 251 259 257 240 232 232 235 242 251 261 270 270 264 266 276 286 283 281 281 272 278 297 300 297 295 295 295 293 295 293 284 281 282 286 292 295 296 296 295 295 294 290 287 287 289 290 289 286 284 282 282 282 282 281 282 282 283
225 226 224 224 227 232 235 239 245 244 235 224 212 212 214 208 207 212 206 200 202 204 200 203 205 203 209 217 221 230 245 251 250 245 248 262 270 275 279 271 262 262 267 277 280 284 290 283 269 280 294 298 296 294 293 294 298 296 289 284 280 283 288 289 289 290 291 293 293 291 288 284 283 285 285 284 283 281 280 280 280 280 279 279 280
227 230 228 230 234 235 234 236 238 238 234 226 214 210 212 211 206 204 200 197 207 216 213 213 218 216 215 219 224 230 237 245 251 250 247 250 257 264 271 272 269 266 263 270 279 283 288 289 286 284 287 290 290 288 289 292 295 293 291 289 289 288 287 286 285 285 286 287 287 288 286 283 282 282 282 281 280 279 278 278 278 279 279 278 279
227 232 233 235 238 238 237 236 234 234 231 225 219 212 208 210 206 203 203 203 210 221 223 220 218 219 226 238 247 254 259 258 252 248 247 247 253 257 260 267 268 268 271 271 277 285 290 293 298 299 296 293 290 286 284 287 291 291 287 288 290 291 290 287 286 286 287 286 285 284 282 280 279 281 282 282 279 276 275 276 276 277 277 277 277
229 233 235 237 239 239 238 237 233 232 231 225 221 216 209 207 205 203 205 212 220 227 228 226 221 219 225 234 239 245 256 262 257 252 251 254 262 261 263 281 282 278 283 285 286 292 299 305 308 309 312 310 303 298 292 290 295 298 293 289 289 290 290 288 287 287 287 288 289 287 284 281 280 282 285 285 282 278 275 275 275 277 278 277 276
232 235 236 237 239 238 237 237 233 230 231 227 220 218 214 205 203 204 204 209 220 228 230 232 234 232 231 234 237 240 247 254 256 255 252 255 265 264 253 264 272 274 277 280 284 289 297 307 310 311 317 318 308 304 304 302 301 298 293 290 290 289 287 286 286 288 288 288 287 284 283 282 282 284 286 285 285 284 283 280 278 279 280 278 277
234 236 238 238 237 237 236 237 233 229 229 226 220 218 217 210 204 208 210 210 215 222 226 228 232 236 240 242 239 237 242 247 252 257 257 258 265 265 253 251 261 269 273 275 279 286 296 306 310 311 316 319 314 308 307 304 302 298 294 292 293 293 291 290 290 291 290 287 281 278 280 281 281 282 283 285 286 285 285 285 284 284 284 282 281
236 238 239 239 238 238 237 235 233 230 227 225 220 218 218 214 209 212 217 218 217 221 226 229 232 235 238 239 235 235 240 243 245 251 255 259 264 268 271 271 271 275 282 289 293 295 299 305 310 309 308 311 313 311 305 300 297 298 297 295 297 298 296 294 295 294 292 288 284 282 283 283 280 280 285 291 291 289 288 288 287 288 288 286 283
238 239 239 238 237 237 236 234 233 231 229 226 223 220 219 215 213 217 220 221 219 221 227 232 237 240 240 238 232 231 239 242 242 247 255 262 264 264 270 276 278 284 291 294 291 290 292 297 303 304 301 302 307 312 310 302 298 299 299 298 301 301 295 292 292 292 291 292 292 291 289 287 285 285 289 292 293 292 292 291 290 289 290 289 284
236 238 238 237 237 237 237 235 234 233 231 229 226 223 222 217 214 218 221 220 218 219 225 231 235 239 238 234 227 225 233 237 236 240 245 249 254 259 265 269 275 284 290 292 292 293 293 295 297 300 299 299 302 308 310 306 301 299 298 299 304 301 293 290 291 291 294 297 295 291 287 286 285 285 288 291 293 293 292 291 291 291 291 289 286
235 236 237 238 238 237 237 236 235 234 232 230 229 227 225 221 217 219 221 219 218 222 228 232 234 237 236 232 228 226 227 227 229 235 240 241 245 251 257 265 273 281 288 294 300 302 300 298 298 297 296 294 297 303 306 306 302 297 294 298 304 302 295 294 295 294 294 297 297 293 289 286 284 284 287 289 291 292 290 288 287 286 287 287 286
235 235 236 239 239 237 237 238 236 234 232 231 231 231 228 225 221 221 223 220 220 227 232 234 233 232 234 233 231 227 225 228 233 240 248 248 245 247 257 270 278 281 286 292 296 298 298 297 297 293 288 287 293 299 303 303 301 298 296 298 301 302 299 295 294 293 294 297 298 294 290 288 288 289 288 288 290 292 290 287 285 284 285 285 284
236 234 234 238 241 239 238 239 236 233 232 233 235 235 232 229 224 222 224 222 222 228 232 234 233 231 232 233 231 230 234 236 238 244 255 257 257 264 273 279 280 282 288 291 293 295 294 294 294 290 284 285 291 295 297 297 297 296 296 295 295 297 295 292 291 293 296 298 297 293 291 293 293 291 288 289 292 294 292 289 288 287 287 284 282
235 232 231 236 242 242 241 239 235 233 234 237 240 240 237 234 228 224 224 224 225 229 231 234 237 237 235 232 231 234 240 241 240 246 255 259 265 276 282 283 284 288 293 293 293 293 291 291 291 288 283 283 286 289 290 291 291 289 287 287 287 288 290 291 294 297 298 299 297 292 292 294 294 290 287 290 293 293 291 289 288 286 285 283 281
233 231 231 235 241 242 241 240 237 237 238 240 243 243 240 235 229 225 226 227 228 231 232 235 241 243 240 234 232 234 240 243 244 248 252 255 263 274 280 283 287 291 293 291 289 290 289 289 289 286 281 280 284 288 289 290 288 285 284 286 287 289 292 293 296 297 297 297 294 290 291 293 291 288 289 292 294 293 291 290 288 286 285 285 282
231 232 232 235 238 239 239 240 239 239 241 242 244 246 242 235 228 226 227 228 231 234 234 236 242 245 242 237 235 236 239 244 248 253 256 259 268 279 283 284 286 287 287 285 286 289 290 288 286 285 283 283 285 288 289 291 290 287 286 287 289 292 293 292 293 293 293 294 292 289 290 291 290 290 292 296 296 294 292 290 288 287 288 289 288
231 233 234 235 236 238 239 239 239 239 240 242 245 247 243 235 228 227 230 232 233 234 234 238 243 246 243 237 236 239 244 249 255 261 265 269 278 284 283 282 282 283 285 286 289 292 290 285 282 283 285 286 287 289 291 292 291 288 285 288 294 297 295 294 294 294 296 297 295 292 292 292 294 296 298 302 303 299 297 296 294 292 291 290 288
233 234 235 237 239 241 242 241 240 239 240 243 245 245 242 236 228 229 234 237 234 232 234 238 243 246 245 241 240 243 249 255 261 268 273 274 276 280 281 283 285 288 290 292 294 292 288 284 282 283 285 287 287 288 289 289 288 286 288 294 299 299 298 298 300 302 303 302 298 296 295 296 301 300 298 303 305 301 299 298 295 292 288 285 281
236 238 239 242 245 245 243 242 242 241 241 244 244 243 242 238 232 232 237 239 236 235 236 238 241 245 246 245 244 247 253 260 268 278 279 273 273 281 287 290 293 293 292 294 295 293 289 286 284 285 287 289 288 289 289 288 286 287 292 297 299 299 300 304 307 308 308 308 302 294 291 293 299 298 295 298 300 297 296 293 289 285 283 281 280
240 242 243 244 247 248 246 245 246 244 242 242 243 243 243 241 237 237 239 239 238 241 243 242 243 247 247 246 249 255 261 266 273 278 275 269 274 287 292 293 293 291 291 293 294 293 292 289 286 286 288 289 287 285 284 284 285 289 293 297 299 302 305 308 308 306 306 307 303 292 289 293 297 296 295 296 295 293 290 286 284 285 286 287 289
237 240 243 246 249 251 250 249 247 242 238 237 239 243 245 245 244 242 242 241 240 245 247 245 245 246 244 244 251 260 265 268 273 275 273 272 283 292 292 289 286 285 289 293 293 292 291 287 283 282 281 280 280 280 282 285 288 292 295 296 301 306 303 300 302 301 300 304 304 296 292 294 296 297 296 295 291 289 289 288 290 294 296 297 298
231 234 240 247 250 250 252 255 250 241 237 237 239 243 247 248 249 248 246 244 244 247 245 242 243 246 246 246 253 260 264 268 274 277 278 282 288 289 287 284 283 284 288 289 286 283 279 278 280 282 283 284 286 289 292 294 297 299 298 298 303 304 295 289 290 293 295 300 301 294 288 288 292 296 298 296 293 291 291 295 300 304 304 303 302
224 223 226 230 234 239 245 252 251 241 233 232 235 240 244 246 247 248 247 246 245 244 241 241 247 252 250 251 256 261 264 268 273 276 279 282 285 285 284 282 281 283 283 283 283 282 280 281 285 288 289 292 294 296 299 304 307 305 300 300 305 303 294 287 287 289 292 293 289 285 286 290 294 296 296 297 296 296 298 302 306 309 308 306 303